UK-DMC 2

Last updated on Mon Sep 21 2026 00:02:51 GMT+0000 (Coordinated Universal Time)

1 35683U 09041C 26263.60232843 .00000474 00000+0 75790-4 0 9992 2 35683 97.8970 36.3154 0001135 70.7708 289.3625 14.76146676920642
UTC large
Height (km)
Speed (km/s)
/
Latitude / Longitude
Inclination (degrees)
Orbital Period (minutes)
Azimuth
Elevation
Range (km)
Doppler Factor

Next 0 passes for location: London (51.5072 / 0.1276)

No passes found over London.
UK-DMC 2